Skip Page Navigation
NASA JPL Caltech
NASA Logo - Jet Propulsion Laboratory + View the NASA Portal
+ Near-Earth Object (NEO) Program
Search JPL
JPL Home Earth Solar System Stars & Galaxies Technology
JPL Solar System Dynamics
BODIES ORBITS EPHEMERIDES TOOLS PHYSICAL DATA DISCOVERY FAQ SITE MAP
JPL Small-Body Database Browser
Search: [ help ]  
7172 Multatuli (1988 DE2)
Classification: Main-belt Asteroid          SPK-ID: 2007172
Ephemeris | Orbit Diagram | Orbital Elements | Physical Parameters | Discovery Circumstances ]

[ show orbit diagram ]
Orbital Elements at Epoch 2456400.5 (2013-Apr-18.0) TDB
Reference: MPO244246 (heliocentric ecliptic J2000)
 Element Value Uncertainty (1-sigma)   Units 
e 0.1468595 n/a  
a 2.4207840 n/a AU
q 2.0652689 n/a AU
i 3.30462 n/a deg
node 95.18182 n/a deg
peri 54.29977 n/a deg
M 226.97032 n/a deg
tp 2456908.8683797
(2014-Sep-08.36837970)
n/a JED
period 1375.7277074
3.77
n/a
n/a
d
yr
n 0.26167969 n/a deg/d
Q 2.7762991 n/a AU
  Orbit Determination Parameters
   # obs. used (total)      925  
   first obs. used      1958-??-??  
   last obs. used      2012-11-03  
   # oppositions      16  
   planetary ephem.      DE403  
   condition code      0  
   fit RMS      0.58  
   data source      MPC:mpn  
   producer      MPCLINUX  

Additional Information
 T_jup = 3.497 

Ephemeris | Orbit Diagram | Orbital Elements | Physical Parameters | Discovery Circumstances ]

Physical Parameter Table
Parameter Symbol Value Units Sigma Reference Notes
absolute magnitude H 13.6 mag n/a PDS3 (MPC 28116)  

7172 Multatuli           Discovered 1988 Feb. 17 by E. W. Elst at the European Southern Observatory.
Named in memory of the great Dutch writer Multatuli ("I have suffered much", pseudonym of Eduard Douwes Dekker, 1820-1887). In 1838 he went to the Dutch East Indies, where he held a number of governmental posts. In 1856 he resigned as assistant commissioner of Lebak, Java, because he was not supported by the government in his struggle to protect the Javanese from exploitation by their own chiefs. Back in Europe, he soon became internationally known with his novel Max Havelaar (1860), which enabled him to plead for justice in Java and to satirize the Dutch middle-class mentality. Name proposed by the discoverer, endorsed by C.-~F. Merks and J. Meeus.
NOTE: some special characters may not display properly (any characters within {} are an attempt to place the proper accent above a character)
Reference: 19961224/MPCPages.arcLast Updated: 2003-09-26

Alternate Designations
 1988 DE2 = 1958 DU = 1992 DS 
Ephemeris | Orbit Diagram | Orbital Elements | Physical Parameters | Discovery Circumstances ]
ABOUT SSD CREDITS/AWARDS PRIVACY/COPYRIGHT GLOSSARY LINKS
FirstGov 2013-Jun-20 04:33 UT
(server date/time)  
NASA Home Page
Site Manager:   Donald K. Yeomans
Webmaster  Alan B. Chamberlin